Location: Herksen
(52.4316°N, 6.1319°E)
Time: 13:45:20
(UTC+00:00)

Cosmos 1271 Rocket - Pass Details

Date: 15 May 2026
Orbit: 421 x 447 km, 81.2° (Epoch: 11 June)

Event Time Altitude Azimuth Distance (km) Brightness Sun altitude
Exits shadow 22:07:34 32° 118° (ESE) 783 3.2 -16.2°
Maximum altitude 22:08:07 34° 95° (E) 743 3.2 -16.2°
Drops below altitude 10° 22:11:14 10° 29° (NNE) 1,554 5.7 -16.4°
Sets 22:13:23 0° 20° (NNE) 2,423 6.9 -16.5°
